Location: Lake Crest
(37.6062°N, 88.9176°W)
Time: 15:54:57
(UTC+00:00)

Cosmos 2263 Rocket - Pass Details

Date: 15 December 2019
Orbit: 824 x 848 km, 71.0° (Epoch: 25 January)

Event Time Altitude Azimuth Distance (km) Brightness Sun altitude
Exits shadow 10:29:02 15° 10° (N) 2,123 4.3 -29.7°
Drops below altitude 10° 10:29:53 10° 13° (NNE) 2,430 4.6 -29.5°
Sets 10:32:23 0° 18° (NNE) 3,366 5.4 -29.0°
